Flag for U.S.A. Weather past 2 weeks in Hialeah, Florida, U.S.A.

Now
71 °F

Passing clouds.


Feels Like: 72 °F
Forecast: 68 / 82 °F
Wind: 9 mph from North

Location: Opa Locka Airport

Current Time: Oct 26, 2014 at 3:59:00 AM

Latest Report: Oct 26, 2014 at 2:53 AM


Visibility: 10 mi

Pressure: 29.92 "Hg

Humidity: 78%

Dew point: 64 °F

Location of HialeahLocation

Historic Weather in Hialeah — Graph

°F

Hialeah temperature yesterday

Maximum temperature yesterday: 84 °F (at 2:53 PM)
Minimum temperature yesterday: 69 °F (at 4:53 AM)
Average temperature yesterday: 75 °F

Past Weeks' High & Low Weather Summary

 TemperatureHumidityPressure
High89 °F (Oct 11, 2:53 PM)100% (Oct 15, 4:53 AM)30.08 "Hg (Oct 15, 4:53 AM)
Low67 °F (Oct 17, 6:53 AM)37% (Oct 17, 4:53 PM)29.81 "Hg (Oct 24, 4:53 PM)
Average78 °F74%29.96 "Hg
* Reported Oct 11 1:53 AM — Oct 26 1:53 AM, Hialeah, Weather by CustomWeather, © 2014

Note: Actual official high and low records may vary slightly from our data, if they occured in-between our weather recording intervals... More about our weather records

Advertising

Hialeah weather history for previous 24 hours

 ConditionsComfort  
Time TempWeatherWind HumidityBarometerVisibility
1:53 AM
Oct 26
72 °FOvercast.8 mph76%29.93 "Hg10 mi
12:53 AM72 °FPassing clouds.8 mph76%29.94 "Hg10 mi
11:53 PM
Oct 25
71 °FClear.7 mph78%29.95 "Hg10 mi
10:53 PM72 °FClear.7 mph76%29.96 "Hg10 mi
9:53 PM74 °FClear.7 mph69%29.95 "Hg10 mi
8:53 PM75 °FClear.3 mph64%29.95 "Hg10 mi
7:53 PM76 °FClear.6 mph62%29.93 "Hg10 mi
6:53 PM77 °FSunny.8 mph56%29.90 "Hg10 mi
5:53 PM79 °FScattered clouds.12 mph54%29.90 "Hg10 mi
4:53 PM81 °FMostly cloudy.12 mph51%29.89 "Hg10 mi
3:53 PM84 °FPartly sunny.8 mph45%29.88 "Hg10 mi
2:53 PM84 °FScattered clouds.9 mph46%29.88 "Hg10 mi
1:53 PM83 °FScattered clouds.9 mph46%29.90 "Hg10 mi
12:53 PM83 °FPassing clouds.10 mph46%29.91 "Hg10 mi
11:53 AM81 °FPassing clouds.13 mph51%29.94 "Hg10 mi
10:53 AM80 °FSunny.14 mph51%29.94 "Hg10 mi
9:53 AM76 °FSunny.10 mph62%29.93 "Hg10 mi
8:53 AM72 °FSunny.12 mph71%29.93 "Hg10 mi
7:53 AM69 °FClear.12 mph76%29.91 "Hg10 mi
6:53 AM69 °FClear.9 mph79%29.88 "Hg10 mi
5:53 AM70 °FClear.9 mph76%29.87 "Hg10 mi
4:53 AM69 °FClear.9 mph81%29.86 "Hg10 mi
3:53 AM70 °FClear.10 mph79%29.86 "Hg10 mi
Weather by CustomWeather, © 2014

See weather overviewHow to use our weather pages